Location: Nians�bougou
(13.2321°N, 4.9818°W)
Time: 14:07:28
(UTC+00:00)

SWIFT - Pass Details

Date: 18 February 2020
Orbit: 545 x 560 km, 20.6° (Epoch: 30 March)

Event Time Altitude Azimuth Distance (km) Brightness Sun altitude
Exits shadow 05:43:16 20° 313° (NW) 1,282 3.7 -14.8°
Maximum altitude 05:45:14 30° 357° (N) 1,004 3.5 -14.3°
Drops below altitude 10° 05:48:59 10° 59° (ENE) 1,821 5.7 -13.4°
Sets 05:51:29 0° 71° (ENE) 2,718 7.0 -12.8°
